Regional Weather Roundup
Issued by NWS

Home | Current Version | Previous Version | Graphics & Text | Print | Product List | Glossary On
Versions: 1 2 3 4 5 6 7 8 9 10 11 12 13 14 15 16 17 18 19 20 21 22 23 24 25 26 27 28 29 30 31 32 33 34 35 36 37 38 39 40 41 42 43 44 45 46 47 48 49 50
000
ASUS43 KDMX 251006
RWRIA

WEATHER ROUNDUP FOR IOWA
NATIONAL WEATHER SERVICE DES MOINES IA
400 AM CST SUN FEB 25 2018

NOTE: "FAIR" INDICATES FEW OR NO CLOUDS BELOW 12,000 FEET WITH NO
SIGNIFICANT WEATHER AND/OR OBSTRUCTIONS TO VISIBILITY.

* - THESE STATIONS ARE NOT NWS STATIONS...THUS NOT UNDER NWS
QUALITY CONTROL.  THEY ALSO DO NOT REPORT WEATHER SUCH
AS PRECIPITATION OR FOG.

IAZ001>003-012>014-020>022-031>034-043>046-251100-
   NORTHWEST IOWA

CITY           SKY/WX    TMP DP  RH WIND       PRES   REMARKS
CARROLL *      CLEAR     21  16  79 W18       29.78R WCI   6
CHEROKEE *     CLEAR     15  11  85 W8        29.76R WCI   4
DENISON *      CLEAR     18  14  86 SW10      29.82S WCI   6
LE MARS *      CLEAR     16  10  79 SW6       29.76F WCI   7
ORANGE CITY *  CLEAR     12  10  92 W12       29.73S WCI  -2
SHELDON *      CLEAR     12   9  85 W17       29.70F WCI  -5
SIOUX CITY     CLEAR     17  10  74 CALM      29.80S
SPENCER        CLEAR     12   6  77 W12       29.72R WCI  -2
STORM LAKE *   CLEAR     18  12  79 W17       29.73S WCI   2
$$

IAZ055>058-069>071-079>083-090>094-251100-
   SOUTHWEST IOWA

CITY           SKY/WX    TMP DP  RH WIND       PRES   REMARKS
ATLANTIC *     CLEAR     21  18  86 SW9       29.85R WCI  11
AUDUBON *      CLEAR     21  16  79 W8        29.81R WCI  12
CLARINDA *     CLEAR     21  21 100 SW6       29.92R WCI  14
COUNCIL BLFS * CLEAR     25  19  80 SW14      29.85R WCI  13
CRESTON *      CLEAR     23  19  86 W7        29.87R WCI  15
LAMONI         CLEAR     27  20  75 W9        29.87R WCI  18
RED OAK *      CLEAR     23  19  86 SW6       29.88R WCI  16
SHENANDOAH *   CLEAR     25  21  86 SW6       29.91S WCI  18
$$

IAZ047>049-059>061-072>074-084-251100-
   CENTRAL IOWA

CITY           SKY/WX    TMP DP  RH WIND       PRES   REMARKS
AMES           CLEAR     23  18  81 W16       29.79R WCI  10
ANKENY *       CLEAR     25  19  80 W14G26    29.83R WCI  13
BOONE *        CLEAR     21  18  86 W17G24    29.77R WCI   7
CHARITON *     CLEAR     27  21  80 W16G23    29.84R WCI  14
DES MOINES     CLEAR     25  20  81 SW14      29.84R WCI  13
GRINNELL*      CLEAR     28  23  83 W16G23    29.79R WCI  15
KNOXVILLE *    CLEAR     27  21  80 W16       29.82R WCI  14
MARSHALLTOWN   PTCLDY    22  18  85 W22G31    29.77R WCI   6
NEWTON *       MOCLDY    28  25  86 W12G17    29.80R WCI  18
PELLA *        PTCLDY    28  23  81 W16G22    29.84R WCI  16
PERRY *        FAIR      23  18  81 W15       29.82R WCI  10
$$

IAZ004>006-015-016-023>025-035-036-251100-
   NORTH CENTRAL IOWA

CITY           SKY/WX    TMP DP  RH WIND       PRES   REMARKS
ALGONA *       PTCLDY    14 N/A N/A W17       29.71S WCI  -3
CLARION *      CLEAR     14  14 100 W18       29.74S WCI  -3
ESTHERVILLE    CLEAR     12   9  87 W14       29.68R WCI  -3
FORT DODGE *   CLEAR     15  11  83 W10       29.76S WCI   2
MASON CITY     CLOUDY    17  15  92 W23       29.71R FOG     WCI  -1
FOREST CITY *  CLOUDY    19  18  93 W10G16    29.70R WCI   8
WEBSTER CITY * CLEAR     18  14  86 W18       29.74S WCI   2
IOWA FALLS *   FAIR      19  15  86 W22G28    29.76R WCI   2
$$

IAZ007>011-017>019-026>030-037>042-050>054-066-251100-
   NORTHEAST IOWA

CITY           SKY/WX    TMP DP  RH WIND       PRES   REMARKS
CEDAR RAPIDS   CLOUDY    31  26  82 W29G38    29.74R WCI  16
CHARLES CITY * CLOUDY    18  19 100 W22G29    29.70R WCI   0
CLINTON *      CLOUDY    32  28  85 W21       29.74R WCI  20
DECORAH *      CLOUDY    19  18  93 W13G25    29.66R WCI   7
DUBUQUE        CLOUDY    29  32 100 W26G35    29.69R WCI  14
MONTICELLO *   CLOUDY    30  25  80 W20G29    29.72R WCI  18
OELWEIN *      CLOUDY    23  23 100 W28       29.71R WCI   6
WATERLOO       FAIR      21  16  81 W21G35    29.74R WCI   5
$$

IAZ064-065-067-068-078-251100-
   EAST CENTRAL IOWA

CITY           SKY/WX    TMP DP  RH WIND       PRES   REMARKS
DAVENPORT      CLOUDY    34  27  75 W21G29    29.77R WCI  22
IOWA CITY      CLOUDY    33  24  69 W22G35    29.79R WCI  21
MT. PLEASANT * MOCLDY    32  28  86 W16G25    29.82R WCI  21
MUSCATINE *    CLOUDY    34  27  75 W17G29    29.80R WCI  23
QUAD CITIES    CLOUDY    34  28  79 W24       29.77R WCI  21
$$

IAZ062-063-075>077-085>089-095>099-251100-
   SOUTHEAST IOWA

CITY           SKY/WX    TMP DP  RH WIND       PRES   REMARKS
BURLINGTON     CLOUDY    33  27  78 W18G28    29.82R WCI  22
FAIRFIELD *    CLOUDY    32  27  80 W15       29.82R WCI  22
FORT MADISON * MOCLDY    34  28  80 W12G17    29.84S WCI  25
KEOKUK *       PTCLDY    32  28  86 W15       29.85R WCI  22
OSKALOOSA *    MOCLDY    30  26  84 W18G28    29.82R WCI  18
OTTUMWA        MOCLDY    30  24  78 W15       29.82R WCI  19
WASHINGTON *   CLOUDY    32  30  93 W20       29.81R WCI  20
$$

ABBREVIATIONS USED IN REMARKS
   TC - TEMPERATURES IN CELSIUS
  WCI - WIND CHILL INDEX
   HX - HEAT INDEX
  VSB - VISIBILITY
$$




USA.gov is the U.S. government's official web portal to all federal, state and local government web resources and services.